Powrót do katalogu

COSMOS 2499 DEB

AktywnyPO
NORAD 49939·DEBRIS·🇷🇺 Russia

Wystrzelony May 23, 2014 z Plesetsk Cosmodrome

Loading…

Następne Przeloty (najbliższe 24 godziny)

TLE

ŚwieżeSource: Space-Track

Epoka: Sep 14, 2026, 13:43 UTC

1 49939U 14028W   26257.57220004  .00002020  00000-0  66151-2 0  9996
2 49939  82.5019 194.1343 0270050 116.6375 246.2664 12.89175620228350

Śledź COSMOS 2499 DEB w czasie rzeczywistym z AllMySat

Download on the App Store